Time,TemperatureF,DewpointF,PressureIn,WindDirection,WindDirectionDegrees,WindSpeedMPH,WindSpeedGustMPH,Humidity,HourlyPrecipIn,Conditions,Clouds,dailyrainin,SoftwareType,DateUTC
2013-11-19 00:00:00,37.6,30.4,29.54,SW,214,4.0,22.0,75,0.00,,,0.00,Wunderground PWS Mod,2013-11-19 05:00:00,
2013-11-19 00:05:00,37.5,30.6,29.54,SW,226,5.0,22.0,76,0.00,,,0.00,Wunderground PWS Mod,2013-11-19 05:05:00,
2013-11-19 00:10:00,37.5,30.3,29.54,SW,215,4.0,22.0,75,0.00,,,0.00,Wunderground PWS Mod,2013-11-19 05:10:00,
2013-11-19 00:15:00,37.5,30.3,29.53,SSW,207,4.0,22.0,75,0.00,,,0.00,Wunderground PWS Mod,2013-11-19 05:15:00,
2013-11-19 00:20:00,37.6,30.4,29.53,SW,225,3.0,22.0,75,0.00,,,0.00,Wunderground PWS Mod,2013-11-19 05:20:00,
2013-11-19 00:25:00,37.6,30.1,29.53,SSW,196,2.0,22.0,74,0.00,,,0.00,Wunderground PWS Mod,2013-11-19 05:25:00,
2013-11-19 00:30:00,37.6,30.1,29.54,SSW,196,1.0,22.0,74,0.00,,,0.00,Wunderground PWS Mod,2013-11-19 05:30:00,
2013-11-19 00:35:00,37.6,30.4,29.54,SSW,200,1.0,14.0,75,0.00,,,0.00,Wunderground PWS Mod,2013-11-19 05:35:00,
2013-11-19 00:40:00,37.5,30.3,29.54,SSW,200,1.0,14.0,75,0.00,,,0.00,Wunderground PWS Mod,2013-11-19 05:40:00,
2013-11-19 00:45:00,37.3,30.1,29.55,SSW,200,0.0,14.0,75,0.00,,,0.00,Wunderground PWS Mod,2013-11-19 05:45:00,
2013-11-19 00:50:00,37.3,30.1,29.55,West,261,1.0,14.0,75,0.00,,,0.00,Wunderground PWS Mod,2013-11-19 05:50:00,
2013-11-19 00:55:00,37.5,29.6,29.55,WSW,250,3.0,14.0,73,0.00,,,0.00,Wunderground PWS Mod,2013-11-19 05:55:00,
2013-11-19 01:00:00,37.9,28.6,29.55,SSW,202,4.0,14.0,69,0.00,,,0.00,Wunderground PWS Mod,2013-11-19 06:00:00,
2013-11-19 01:05:00,38.2,26.7,29.55,South,191,5.0,14.0,63,0.00,,,0.00,Wunderground PWS Mod,2013-11-19 06:05:00,
2013-11-19 01:10:00,38.5,27.0,29.55,South,177,5.0,14.0,63,0.00,,,0.00,Wunderground PWS Mod,2013-11-19 06:10:00,
2013-11-19 01:15:00,38.8,26.1,29.56,SW,235,6.0,14.0,60,0.00,,,0.00,Wunderground PWS Mod,2013-11-19 06:15:00,
2013-11-19 01:20:00,38.8,26.5,29.56,South,190,7.0,14.0,61,0.00,,,0.00,Wunderground PWS Mod,2013-11-19 06:20:00,
2013-11-19 01:25:00,38.6,25.9,29.56,SSE,152,7.0,14.0,60,0.00,,,0.00,Wunderground PWS Mod,2013-11-19 06:25:00,
2013-11-19 01:30:00,38.5,26.2,29.56,WNW,292,6.0,14.0,61,0.00,,,0.00,Wunderground PWS Mod,2013-11-19 06:30:00,
2013-11-19 01:35:00,38.5,26.2,29.56,SSW,192,6.0,18.0,61,0.00,,,0.00,Wunderground PWS Mod,2013-11-19 06:35:00,
2013-11-19 01:40:00,38.2,25.9,29.56,SSW,192,7.0,18.0,61,0.00,,,0.00,Wunderground PWS Mod,2013-11-19 06:40:00,
2013-11-19 01:45:00,38.0,25.7,29.57,SW,228,9.0,18.0,61,0.00,,,0.00,Wunderground PWS Mod,2013-11-19 06:45:00,
2013-11-19 01:50:00,37.8,25.5,29.57,SSE,165,9.0,18.0,61,0.00,,,0.00,Wunderground PWS Mod,2013-11-19 06:50:00,
2013-11-19 01:55:00,37.6,25.4,29.57,SW,223,9.0,18.0,61,0.00,,,0.00,Wunderground PWS Mod,2013-11-19 06:55:00,
2013-11-19 02:00:00,37.5,25.7,29.57,SW,214,8.0,18.0,62,0.00,,,0.00,Wunderground PWS Mod,2013-11-19 07:00:00,
2013-11-19 02:05:00,37.3,25.5,29.57,SW,218,7.0,19.0,62,0.00,,,0.00,Wunderground PWS Mod,2013-11-19 07:05:00,
2013-11-19 02:10:00,37.3,25.1,29.57,WSW,246,8.0,19.0,61,0.00,,,0.00,Wunderground PWS Mod,2013-11-19 07:10:00,
2013-11-19 02:15:00,37.5,24.9,29.57,SSE,148,10.0,19.0,60,0.00,,,0.00,Wunderground PWS Mod,2013-11-19 07:15:00,
2013-11-19 02:20:00,37.3,25.1,29.57,SSW,213,11.0,19.0,61,0.00,,,0.00,Wunderground PWS Mod,2013-11-19 07:20:00,
2013-11-19 02:25:00,37.3,25.1,29.57,WSW,242,11.0,19.0,61,0.00,,,0.00,Wunderground PWS Mod,2013-11-19 07:25:00,
2013-11-19 02:30:00,36.2,28.0,29.60,WSW,246,10.0,19.0,72,0.00,,,0.00,Wunderground PWS Mod,2013-11-19 07:30:00,
2013-11-19 02:35:00,34.7,26.9,29.60,SW,234,10.0,25.0,73,0.00,,,0.00,Wunderground PWS Mod,2013-11-19 07:35:00,
2013-11-19 02:40:00,34.3,27.8,29.60,WNW,290,9.0,25.0,77,0.00,,,0.00,Wunderground PWS Mod,2013-11-19 07:40:00,
2013-11-19 02:45:00,33.5,28.6,29.61,South,180,6.0,25.0,82,0.00,,,0.00,Wunderground PWS Mod,2013-11-19 07:45:00,
2013-11-19 02:50:00,32.5,28.2,29.61,WSW,240,3.0,25.0,84,0.00,,,0.00,Wunderground PWS Mod,2013-11-19 07:50:00,
2013-11-19 02:55:00,31.8,28.4,29.61,WSW,238,4.0,25.0,87,0.00,,,0.00,Wunderground PWS Mod,2013-11-19 07:55:00,
2013-11-19 03:00:00,31.3,28.2,29.62,SW,232,5.0,25.0,88,0.00,,,0.00,Wunderground PWS Mod,2013-11-19 08:00:00,
2013-11-19 03:05:00,31.0,28.1,29.62,WSW,240,5.0,21.0,89,0.00,,,0.00,Wunderground PWS Mod,2013-11-19 08:05:00,
2013-11-19 03:10:00,31.0,27.6,29.62,SW,219,4.0,21.0,87,0.00,,,0.00,Wunderground PWS Mod,2013-11-19 08:10:00,
2013-11-19 03:15:00,31.0,27.0,29.64,East,101,3.0,21.0,85,0.00,,,0.00,Wunderground PWS Mod,2013-11-19 08:15:00,
2013-11-19 03:20:00,31.2,26.3,29.64,WSW,237,2.0,21.0,82,0.00,,,0.00,Wunderground PWS Mod,2013-11-19 08:20:00,
2013-11-19 03:25:00,31.2,25.7,29.64,West,263,3.0,21.0,80,0.00,,,0.00,Wunderground PWS Mod,2013-11-19 08:25:00,
2013-11-19 03:30:00,31.3,25.2,29.65,West,269,4.0,21.0,78,0.00,,,0.00,Wunderground PWS Mod,2013-11-19 08:30:00,
2013-11-19 03:35:00,31.3,24.6,29.65,NW,311,3.0,13.0,76,0.00,,,0.00,Wunderground PWS Mod,2013-11-19 08:35:00,
2013-11-19 03:40:00,31.2,24.8,29.65,NNE,26,3.0,13.0,77,0.00,,,0.00,Wunderground PWS Mod,2013-11-19 08:40:00,
2013-11-19 03:45:00,31.2,24.8,29.66,NNE,12,2.0,13.0,77,0.00,,,0.00,Wunderground PWS Mod,2013-11-19 08:45:00,
2013-11-19 03:50:00,31.0,24.9,29.66,NNE,31,1.0,13.0,78,0.00,,,0.00,Wunderground PWS Mod,2013-11-19 08:50:00,
2013-11-19 03:55:00,30.9,24.8,29.66,West,265,1.0,13.0,78,0.00,,,0.00,Wunderground PWS Mod,2013-11-19 08:55:00,
2013-11-19 04:00:00,30.7,24.7,29.66,SSW,210,3.0,13.0,78,0.00,,,0.00,Wunderground PWS Mod,2013-11-19 09:00:00,
2013-11-19 04:05:00,30.7,24.3,29.66,SW,230,4.0,10.0,77,0.00,,,0.00,Wunderground PWS Mod,2013-11-19 09:05:00,
2013-11-19 04:10:00,30.7,24.0,29.66,SW,233,4.0,10.0,76,0.00,,,0.00,Wunderground PWS Mod,2013-11-19 09:10:00,
2013-11-19 04:15:00,30.7,23.7,29.68,West,259,3.0,10.0,75,0.00,,,0.00,Wunderground PWS Mod,2013-11-19 09:15:00,
2013-11-19 04:20:00,30.7,23.1,29.68,South,175,3.0,10.0,73,0.00,,,0.00,Wunderground PWS Mod,2013-11-19 09:20:00,
2013-11-19 04:25:00,30.7,22.7,29.68,WSW,246,2.0,10.0,72,0.00,,,0.00,Wunderground PWS Mod,2013-11-19 09:25:00,
2013-11-19 04:30:00,30.6,23.0,29.70,North,5,3.0,10.0,73,0.00,,,0.00,Wunderground PWS Mod,2013-11-19 09:30:00,
2013-11-19 04:35:00,30.4,23.1,29.70,West,265,3.0,15.0,74,0.00,,,0.00,Wunderground PWS Mod,2013-11-19 09:35:00,
2013-11-19 04:40:00,30.3,23.3,29.70,SW,233,4.0,15.0,75,0.00,,,0.00,Wunderground PWS Mod,2013-11-19 09:40:00,
2013-11-19 04:45:00,30.3,23.3,29.71,SW,234,3.0,15.0,75,0.00,,,0.00,Wunderground PWS Mod,2013-11-19 09:45:00,
2013-11-19 04:50:00,30.1,23.1,29.71,South,186,2.0,15.0,75,0.00,,,0.00,Wunderground PWS Mod,2013-11-19 09:50:00,
2013-11-19 04:55:00,30.1,23.1,29.71,West,275,4.0,15.0,75,0.00,,,0.00,Wunderground PWS Mod,2013-11-19 09:55:00,
2013-11-19 05:00:00,30.3,23.3,29.71,South,186,4.0,15.0,75,0.00,,,0.00,Wunderground PWS Mod,2013-11-19 10:00:00,
2013-11-19 05:05:00,30.3,22.7,29.71,SW,233,4.0,12.0,73,0.00,,,0.00,Wunderground PWS Mod,2013-11-19 10:05:00,
2013-11-19 05:10:00,30.3,23.0,29.71,SW,215,4.0,12.0,74,0.00,,,0.00,Wunderground PWS Mod,2013-11-19 10:10:00,
2013-11-19 05:15:00,30.3,22.4,29.71,WSW,240,5.0,12.0,72,0.00,,,0.00,Wunderground PWS Mod,2013-11-19 10:15:00,
2013-11-19 05:20:00,30.3,22.4,29.71,SW,232,7.0,15.0,72,0.00,,,0.00,Wunderground PWS Mod,2013-11-19 10:20:00,
2013-11-19 05:25:00,30.0,20.7,29.71,SW,221,10.0,12.0,68,0.00,,,0.00,Wunderground PWS Mod,2013-11-19 10:25:00,
2013-11-19 05:30:00,29.8,20.9,29.73,West,273,10.0,12.0,69,0.00,,,0.00,Wunderground PWS Mod,2013-11-19 10:30:00,
2013-11-19 05:35:00,29.8,20.5,29.73,WSW,242,8.0,28.0,68,0.00,,,0.00,Wunderground PWS Mod,2013-11-19 10:35:00,
2013-11-19 05:40:00,29.8,19.8,29.73,SW,219,9.0,28.0,66,0.00,,,0.00,Wunderground PWS Mod,2013-11-19 10:40:00,
2013-11-19 05:45:00,29.8,20.5,29.74,WNW,283,8.0,28.0,68,0.00,,,0.00,Wunderground PWS Mod,2013-11-19 10:45:00,
2013-11-19 05:50:00,29.7,20.4,29.74,SSW,202,6.0,28.0,68,0.00,,,0.00,Wunderground PWS Mod,2013-11-19 10:50:00,
2013-11-19 05:55:00,29.7,19.7,29.74,WNW,286,6.0,28.0,66,0.00,,,0.00,Wunderground PWS Mod,2013-11-19 10:55:00,
2013-11-19 06:00:00,29.7,19.0,29.76,West,273,4.0,28.0,64,0.00,,,0.00,Wunderground PWS Mod,2013-11-19 11:00:00,
2013-11-19 06:05:00,29.8,19.8,29.76,NW,313,2.0,21.0,66,0.00,,,0.00,Wunderground PWS Mod,2013-11-19 11:05:00,
2013-11-19 06:10:00,30.0,17.8,29.76,South,190,4.0,21.0,60,0.00,,,0.00,Wunderground PWS Mod,2013-11-19 11:10:00,
2013-11-19 06:15:00,29.8,18.0,29.77,SW,218,7.0,21.0,61,0.00,,,0.00,Wunderground PWS Mod,2013-11-19 11:15:00,
2013-11-19 06:20:00,29.5,18.1,29.77,West,271,8.0,21.0,62,0.00,,,0.00,Wunderground PWS Mod,2013-11-19 11:20:00,
2013-11-19 06:25:00,29.5,17.3,29.77,SW,215,7.0,21.0,60,0.00,,,0.00,Wunderground PWS Mod,2013-11-19 11:25:00,
2013-11-19 06:30:00,29.7,17.1,29.77,West,259,5.0,21.0,59,0.00,,,0.00,Wunderground PWS Mod,2013-11-19 11:30:00,
2013-11-19 06:35:00,29.7,16.3,29.77,WSW,241,5.0,24.0,57,0.00,,,0.00,Wunderground PWS Mod,2013-11-19 11:35:00,
2013-11-19 06:40:00,29.7,15.9,29.77,West,264,5.0,24.0,56,0.00,,,0.00,Wunderground PWS Mod,2013-11-19 11:40:00,
2013-11-19 06:45:00,29.8,16.4,29.79,ESE,105,3.0,24.0,57,0.00,,,0.00,Wunderground PWS Mod,2013-11-19 11:45:00,
2013-11-19 06:50:00,29.8,16.4,29.79,SSW,205,3.0,24.0,57,0.00,,,0.00,Wunderground PWS Mod,2013-11-19 11:50:00,
2013-11-19 06:55:00,29.8,16.8,29.79,WNW,294,4.0,24.0,58,0.00,,,0.00,Wunderground PWS Mod,2013-11-19 11:55:00,
2013-11-19 07:00:00,29.7,17.1,29.80,WSW,240,5.0,24.0,59,0.00,,,0.00,Wunderground PWS Mod,2013-11-19 12:00:00,
2013-11-19 07:05:00,29.5,17.7,29.80,WNW,286,5.0,13.0,61,0.00,,,0.00,Wunderground PWS Mod,2013-11-19 12:05:00,
2013-11-19 07:10:00,29.4,19.1,29.80,SW,224,7.0,13.0,65,0.00,,,0.00,Wunderground PWS Mod,2013-11-19 12:10:00,
2013-11-19 07:15:00,28.7,20.8,29.82,WSW,249,8.0,13.0,72,0.00,,,0.00,Wunderground PWS Mod,2013-11-19 12:15:00,
2013-11-19 07:20:00,28.4,20.8,29.82,SW,223,7.0,13.0,73,0.00,,,0.00,Wunderground PWS Mod,2013-11-19 12:20:00,
2013-11-19 07:25:00,28.4,19.5,29.82,SW,225,4.0,13.0,69,0.00,,,0.00,Wunderground PWS Mod,2013-11-19 12:25:00,
2013-11-19 07:30:00,28.7,19.1,29.82,SSE,157,4.0,13.0,67,0.00,,,0.00,Wunderground PWS Mod,2013-11-19 12:30:00,
2013-11-19 07:35:00,28.8,19.2,29.82,West,274,3.0,21.0,67,0.00,,,0.00,Wunderground PWS Mod,2013-11-19 12:35:00,
2013-11-19 07:40:00,28.8,19.6,29.82,SW,221,2.0,21.0,68,0.00,,,0.00,Wunderground PWS Mod,2013-11-19 12:40:00,
2013-11-19 07:45:00,29.0,19.1,29.82,WSW,248,3.0,21.0,66,0.00,,,0.00,Wunderground PWS Mod,2013-11-19 12:45:00,
2013-11-19 07:50:00,29.0,18.3,29.82,NW,325,5.0,21.0,64,0.00,,,0.00,Wunderground PWS Mod,2013-11-19 12:50:00,
2013-11-19 07:55:00,29.0,17.6,29.82,SSW,199,6.0,21.0,62,0.00,,,0.00,Wunderground PWS Mod,2013-11-19 12:55:00,
2013-11-19 08:00:00,29.1,18.4,29.82,West,261,6.0,21.0,64,0.00,,,0.00,Wunderground PWS Mod,2013-11-19 13:00:00,
2013-11-19 08:05:00,29.3,17.1,29.82,SW,215,8.0,19.0,60,0.00,,,0.00,Wunderground PWS Mod,2013-11-19 13:05:00,
2013-11-19 08:10:00,29.3,16.3,29.82,WSW,242,9.0,19.0,58,0.00,,,0.00,Wunderground PWS Mod,2013-11-19 13:10:00,
2013-11-19 08:15:00,29.3,16.3,29.84,SW,220,8.0,19.0,58,0.00,,,0.00,Wunderground PWS Mod,2013-11-19 13:15:00,
2013-11-19 08:20:00,29.3,16.3,29.84,SW,236,7.0,19.0,58,0.00,,,0.00,Wunderground PWS Mod,2013-11-19 13:20:00,
2013-11-19 08:25:00,29.4,16.0,29.84,WSW,258,7.0,19.0,57,0.00,,,0.00,Wunderground PWS Mod,2013-11-19 13:25:00,
2013-11-19 08:30:00,29.4,15.2,29.83,SW,223,8.0,19.0,55,0.00,,,0.00,Wunderground PWS Mod,2013-11-19 13:30:00,
2013-11-19 08:35:00,29.5,15.7,29.83,SW,217,9.0,25.0,56,0.00,,,0.00,Wunderground PWS Mod,2013-11-19 13:35:00,
2013-11-19 08:40:00,29.7,15.9,29.83,West,260,8.0,25.0,56,0.00,,,0.00,Wunderground PWS Mod,2013-11-19 13:40:00,
2013-11-19 08:45:00,29.7,15.9,29.85,SW,225,7.0,25.0,56,0.00,,,0.00,Wunderground PWS Mod,2013-11-19 13:45:00,
2013-11-19 08:50:00,29.7,16.3,29.85,SSW,206,8.0,25.0,57,0.00,,,0.00,Wunderground PWS Mod,2013-11-19 13:50:00,
2013-11-19 08:55:00,29.5,16.5,29.85,SW,219,8.0,25.0,58,0.00,,,0.00,Wunderground PWS Mod,2013-11-19 13:55:00,
2013-11-19 09:00:00,29.4,16.4,29.85,NNW,335,10.0,25.0,58,0.00,,,0.00,Wunderground PWS Mod,2013-11-19 14:00:00,
2013-11-19 09:05:00,29.4,16.4,29.85,SW,229,9.0,25.0,58,0.00,,,0.00,Wunderground PWS Mod,2013-11-19 14:05:00,
2013-11-19 09:10:00,29.7,16.7,29.85,SW,214,7.0,25.0,58,0.00,,,0.00,Wunderground PWS Mod,2013-11-19 14:10:00,
2013-11-19 09:15:00,29.7,16.3,29.86,SW,229,10.0,25.0,57,0.00,,,0.00,Wunderground PWS Mod,2013-11-19 14:15:00,
2013-11-19 09:20:00,29.7,16.3,29.86,West,268,11.0,25.0,57,0.00,,,0.00,Wunderground PWS Mod,2013-11-19 14:20:00,
2013-11-19 09:25:00,29.8,16.8,29.86,West,263,9.0,25.0,58,0.00,,,0.00,Wunderground PWS Mod,2013-11-19 14:25:00,
2013-11-19 09:30:00,29.7,16.7,29.87,West,280,10.0,25.0,58,0.00,,,0.00,Wunderground PWS Mod,2013-11-19 14:30:00,
2013-11-19 09:35:00,29.7,16.7,29.87,WSW,242,10.0,28.0,58,0.00,,,0.00,Wunderground PWS Mod,2013-11-19 14:35:00,
2013-11-19 09:40:00,29.7,16.7,29.87,WSW,246,12.0,28.0,58,0.00,,,0.00,Wunderground PWS Mod,2013-11-19 14:40:00,
2013-11-19 09:45:00,29.7,16.7,29.88,WSW,257,11.0,28.0,58,0.00,,,0.00,Wunderground PWS Mod,2013-11-19 14:45:00,
2013-11-19 09:50:00,29.8,16.8,29.88,West,259,10.0,28.0,58,0.00,,,0.00,Wunderground PWS Mod,2013-11-19 14:50:00,
2013-11-19 09:55:00,29.8,17.2,29.88,SSW,202,11.0,28.0,59,0.00,,,0.00,Wunderground PWS Mod,2013-11-19 14:55:00,
2013-11-19 10:00:00,29.7,17.1,29.88,West,263,10.0,28.0,59,0.00,,,0.00,Wunderground PWS Mod,2013-11-19 15:00:00,
2013-11-19 10:05:00,29.7,17.1,29.88,WNW,301,11.0,24.0,59,0.00,,,0.00,Wunderground PWS Mod,2013-11-19 15:05:00,
2013-11-19 10:10:00,29.5,17.3,29.88,South,179,11.0,24.0,60,0.00,,,0.00,Wunderground PWS Mod,2013-11-19 15:10:00,
2013-11-19 10:15:00,29.7,17.5,29.89,West,263,10.0,24.0,60,0.00,,,0.00,Wunderground PWS Mod,2013-11-19 15:15:00,
2013-11-19 10:20:00,29.7,17.1,29.89,WNW,297,10.0,24.0,59,0.00,,,0.00,Wunderground PWS Mod,2013-11-19 15:20:00,
2013-11-19 10:25:00,29.8,17.6,29.89,WSW,242,9.0,24.0,60,0.00,,,0.00,Wunderground PWS Mod,2013-11-19 15:25:00,
2013-11-19 10:30:00,30.0,17.0,29.89,SSW,209,7.0,24.0,58,0.00,,,0.00,Wunderground PWS Mod,2013-11-19 15:30:00,
2013-11-19 10:35:00,29.8,17.2,29.89,SSW,211,8.0,23.0,59,0.00,,,0.00,Wunderground PWS Mod,2013-11-19 15:35:00,
2013-11-19 10:40:00,30.0,17.4,29.89,WSW,252,10.0,23.0,59,0.00,,,0.00,Wunderground PWS Mod,2013-11-19 15:40:00,
2013-11-19 10:45:00,30.0,17.8,29.90,SSW,194,10.0,23.0,60,0.00,,,0.00,Wunderground PWS Mod,2013-11-19 15:45:00,
2013-11-19 10:50:00,30.1,17.1,29.90,West,260,9.0,23.0,58,0.00,,,0.00,Wunderground PWS Mod,2013-11-19 15:50:00,
2013-11-19 10:55:00,30.3,16.9,29.90,WNW,284,9.0,23.0,57,0.00,,,0.00,Wunderground PWS Mod,2013-11-19 15:55:00,
2013-11-19 11:00:00,30.4,18.5,29.90,NNW,332,9.0,23.0,61,0.00,,,0.00,Wunderground PWS Mod,2013-11-19 16:00:00,
2013-11-19 11:05:00,30.3,18.1,29.90,WSW,257,9.0,22.0,60,0.00,,,0.00,Wunderground PWS Mod,2013-11-19 16:05:00,
2013-11-19 11:10:00,30.4,17.4,29.90,WNW,293,9.0,22.0,58,0.00,,,0.00,Wunderground PWS Mod,2013-11-19 16:10:00,
2013-11-19 11:15:00,30.4,16.6,29.91,West,277,9.0,22.0,56,0.00,,,0.00,Wunderground PWS Mod,2013-11-19 16:15:00,
2013-11-19 11:20:00,30.6,17.2,29.91,South,185,9.0,22.0,57,0.00,,,0.00,Wunderground PWS Mod,2013-11-19 16:20:00,
2013-11-19 11:25:00,30.6,16.7,29.91,NNW,337,9.0,22.0,56,0.00,,,0.00,Wunderground PWS Mod,2013-11-19 16:25:00,
2013-11-19 11:30:00,30.6,17.6,29.92,WSW,254,9.0,22.0,58,0.00,,,0.00,Wunderground PWS Mod,2013-11-19 16:30:00,
2013-11-19 11:35:00,30.4,17.0,29.92,WSW,258,8.0,24.0,57,0.00,,,0.00,Wunderground PWS Mod,2013-11-19 16:35:00,
2013-11-19 11:40:00,30.3,17.3,29.92,SW,216,7.0,24.0,58,0.00,,,0.00,Wunderground PWS Mod,2013-11-19 16:40:00,
2013-11-19 11:45:00,30.0,17.8,29.93,SW,226,9.0,24.0,60,0.00,,,0.00,Wunderground PWS Mod,2013-11-19 16:45:00,
2013-11-19 11:50:00,29.8,16.8,29.93,WSW,244,10.0,24.0,58,0.00,,,0.00,Wunderground PWS Mod,2013-11-19 16:50:00,
2013-11-19 11:55:00,29.7,17.1,29.93,WSW,240,8.0,24.0,59,0.00,,,0.00,Wunderground PWS Mod,2013-11-19 16:55:00,
2013-11-19 12:00:00,29.7,17.1,29.93,West,269,6.0,24.0,59,0.00,,,0.00,Wunderground PWS Mod,2013-11-19 17:00:00,
2013-11-19 12:05:00,30.0,17.0,29.93,WNW,286,6.0,22.0,58,0.00,,,0.00,Wunderground PWS Mod,2013-11-19 17:05:00,
2013-11-19 12:10:00,29.8,16.8,29.93,WSW,242,8.0,22.0,58,0.00,,,0.00,Wunderground PWS Mod,2013-11-19 17:10:00,
2013-11-19 12:15:00,30.0,17.0,29.94,WSW,243,8.0,22.0,58,0.00,,,0.00,Wunderground PWS Mod,2013-11-19 17:15:00,
2013-11-19 12:20:00,30.1,17.1,29.94,West,262,7.0,22.0,58,0.00,,,0.00,Wunderground PWS Mod,2013-11-19 17:20:00,
2013-11-19 12:25:00,30.3,16.9,29.94,WNW,296,5.0,22.0,57,0.00,,,0.00,Wunderground PWS Mod,2013-11-19 17:25:00,
2013-11-19 12:30:00,30.3,17.3,29.94,NW,308,3.0,22.0,58,0.00,,,0.00,Wunderground PWS Mod,2013-11-19 17:30:00,
2013-11-19 12:35:00,30.1,17.9,29.94,SSE,167,3.0,20.0,60,0.00,,,0.00,Wunderground PWS Mod,2013-11-19 17:35:00,
2013-11-19 12:40:00,30.0,17.4,29.94,WSW,258,7.0,20.0,59,0.00,,,0.00,Wunderground PWS Mod,2013-11-19 17:40:00,
2013-11-19 12:45:00,30.0,17.0,29.95,SW,236,8.0,20.0,58,0.00,,,0.00,Wunderground PWS Mod,2013-11-19 17:45:00,
2013-11-19 12:50:00,30.0,16.6,29.95,WSW,245,7.0,20.0,57,0.00,,,0.00,Wunderground PWS Mod,2013-11-19 17:50:00,
2013-11-19 12:55:00,30.0,17.0,29.95,WNW,288,6.0,20.0,58,0.00,,,0.00,Wunderground PWS Mod,2013-11-19 17:55:00,
2013-11-19 13:00:00,30.1,17.1,29.95,NE,41,4.0,20.0,58,0.00,,,0.00,Wunderground PWS Mod,2013-11-19 18:00:00,
2013-11-19 13:05:00,30.1,17.5,29.95,WNW,287,4.0,24.0,59,0.00,,,0.00,Wunderground PWS Mod,2013-11-19 18:05:00,
2013-11-19 13:10:00,30.1,17.5,29.95,WSW,244,5.0,24.0,59,0.00,,,0.00,Wunderground PWS Mod,2013-11-19 18:10:00,
2013-11-19 13:15:00,30.1,17.9,29.95,SW,229,7.0,24.0,60,0.00,,,0.00,Wunderground PWS Mod,2013-11-19 18:15:00,
2013-11-19 13:20:00,30.0,17.8,29.95,SSW,198,7.0,24.0,60,0.00,,,0.00,Wunderground PWS Mod,2013-11-19 18:20:00,
2013-11-19 13:25:00,30.0,17.4,29.95,SSW,209,6.0,24.0,59,0.00,,,0.00,Wunderground PWS Mod,2013-11-19 18:25:00,
2013-11-19 13:30:00,30.0,17.8,29.96,WSW,243,4.0,24.0,60,0.00,,,0.00,Wunderground PWS Mod,2013-11-19 18:30:00,
2013-11-19 13:35:00,30.0,17.4,29.96,WSW,257,5.0,17.0,59,0.00,,,0.00,Wunderground PWS Mod,2013-11-19 18:35:00,
2013-11-19 13:40:00,30.1,17.5,29.96,WNW,301,5.0,17.0,59,0.00,,,0.00,Wunderground PWS Mod,2013-11-19 18:40:00,
2013-11-19 13:45:00,30.1,17.5,29.97,West,267,3.0,17.0,59,0.00,,,0.00,Wunderground PWS Mod,2013-11-19 18:45:00,
2013-11-19 13:50:00,30.0,17.4,29.97,SW,221,4.0,17.0,59,0.00,,,0.00,Wunderground PWS Mod,2013-11-19 18:50:00,
2013-11-19 13:55:00,29.8,17.6,29.97,WSW,237,7.0,17.0,60,0.00,,,0.00,Wunderground PWS Mod,2013-11-19 18:55:00,
2013-11-19 14:00:00,29.7,17.5,29.98,WNW,286,7.0,17.0,60,0.00,,,0.00,Wunderground PWS Mod,2013-11-19 19:00:00,
2013-11-19 14:05:00,29.7,17.5,29.98,WNW,288,7.0,17.0,60,0.00,,,0.00,Wunderground PWS Mod,2013-11-19 19:05:00,
2013-11-19 14:10:00,29.7,17.9,29.98,WSW,240,7.0,17.0,61,0.00,,,0.00,Wunderground PWS Mod,2013-11-19 19:10:00,
2013-11-19 14:15:00,29.7,17.9,29.99,SW,233,5.0,17.0,61,0.00,,,0.00,Wunderground PWS Mod,2013-11-19 19:15:00,
2013-11-19 14:20:00,29.7,18.3,29.99,WSW,255,5.0,17.0,62,0.00,,,0.00,Wunderground PWS Mod,2013-11-19 19:20:00,
2013-11-19 14:25:00,29.8,18.0,29.99,West,261,6.0,17.0,61,0.00,,,0.00,Wunderground PWS Mod,2013-11-19 19:25:00,
2013-11-19 14:30:00,29.8,17.6,30.00,WSW,243,5.0,17.0,60,0.00,,,0.00,Wunderground PWS Mod,2013-11-19 19:30:00,
2013-11-19 14:35:00,29.7,17.1,30.00,West,259,6.0,19.0,59,0.00,,,0.00,Wunderground PWS Mod,2013-11-19 19:35:00,
2013-11-19 14:40:00,29.7,17.5,30.00,West,267,9.0,19.0,60,0.00,,,0.00,Wunderground PWS Mod,2013-11-19 19:40:00,
2013-11-19 14:45:00,29.7,17.5,30.00,WNW,292,6.0,19.0,60,0.00,,,0.00,Wunderground PWS Mod,2013-11-19 19:45:00,
2013-11-19 14:50:00,29.7,17.9,30.00,SW,227,5.0,19.0,61,0.00,,,0.00,Wunderground PWS Mod,2013-11-19 19:50:00,
2013-11-19 14:55:00,29.5,18.1,30.00,West,276,6.0,19.0,62,0.00,,,0.00,Wunderground PWS Mod,2013-11-19 19:55:00,
2013-11-19 15:00:00,29.5,18.4,30.02,SW,232,6.0,19.0,63,0.00,,,0.00,Wunderground PWS Mod,2013-11-19 20:00:00,
2013-11-19 15:05:00,29.5,18.4,30.02,SW,234,4.0,18.0,63,0.00,,,0.00,Wunderground PWS Mod,2013-11-19 20:05:00,
2013-11-19 15:10:00,29.5,18.4,30.02,SSW,206,3.0,18.0,63,0.00,,,0.00,Wunderground PWS Mod,2013-11-19 20:10:00,
2013-11-19 15:15:00,29.5,18.4,30.02,West,263,4.0,18.0,63,0.00,,,0.00,Wunderground PWS Mod,2013-11-19 20:15:00,
2013-11-19 15:20:00,29.4,18.7,30.02,SSW,211,5.0,18.0,64,0.00,,,0.00,Wunderground PWS Mod,2013-11-19 20:20:00,
2013-11-19 15:25:00,29.4,18.7,30.02,SW,221,6.0,18.0,64,0.00,,,0.00,Wunderground PWS Mod,2013-11-19 20:25:00,
2013-11-19 15:30:00,29.4,18.7,30.04,South,188,8.0,18.0,64,0.00,,,0.00,Wunderground PWS Mod,2013-11-19 20:30:00,
2013-11-19 15:35:00,29.3,18.6,30.04,SSW,205,8.0,17.0,64,0.00,,,0.00,Wunderground PWS Mod,2013-11-19 20:35:00,
2013-11-19 15:40:00,29.3,19.0,30.04,SSW,199,6.0,17.0,65,0.00,,,0.00,Wunderground PWS Mod,2013-11-19 20:40:00,
2013-11-19 15:45:00,29.3,19.0,30.05,SSW,199,4.0,17.0,65,0.00,,,0.00,Wunderground PWS Mod,2013-11-19 20:45:00,
2013-11-19 15:50:00,29.3,18.6,30.05,SW,232,4.0,17.0,64,0.00,,,0.00,Wunderground PWS Mod,2013-11-19 20:50:00,
2013-11-19 15:55:00,29.1,18.4,30.05,WSW,248,7.0,17.0,64,0.00,,,0.00,Wunderground PWS Mod,2013-11-19 20:55:00,
2013-11-19 16:00:00,29.1,18.8,30.06,WSW,250,8.0,17.0,65,0.00,,,0.00,Wunderground PWS Mod,2013-11-19 21:00:00,
2013-11-19 16:05:00,29.1,19.2,30.06,SW,219,6.0,20.0,66,0.00,,,0.00,Wunderground PWS Mod,2013-11-19 21:05:00,
2013-11-19 16:10:00,29.1,18.8,30.06,WNW,290,4.0,20.0,65,0.00,,,0.00,Wunderground PWS Mod,2013-11-19 21:10:00,
2013-11-19 16:15:00,29.1,18.1,30.07,WSW,246,4.0,20.0,63,0.00,,,0.00,Wunderground PWS Mod,2013-11-19 21:15:00,
2013-11-19 16:20:00,29.1,18.1,30.07,WNW,300,5.0,20.0,63,0.00,,,0.00,Wunderground PWS Mod,2013-11-19 21:20:00,
2013-11-19 16:25:00,29.1,18.4,30.07,WNW,287,5.0,20.0,64,0.00,,,0.00,Wunderground PWS Mod,2013-11-19 21:25:00,
2013-11-19 16:30:00,29.1,18.4,30.07,WNW,292,4.0,20.0,64,0.00,,,0.00,Wunderground PWS Mod,2013-11-19 21:30:00,
2013-11-19 16:35:00,29.0,18.3,30.07,SW,225,4.0,15.0,64,0.00,,,0.00,Wunderground PWS Mod,2013-11-19 21:35:00,
2013-11-19 16:40:00,29.0,18.7,30.07,WSW,246,4.0,15.0,65,0.00,,,0.00,Wunderground PWS Mod,2013-11-19 21:40:00,
2013-11-19 16:45:00,29.0,18.7,30.08,SW,230,5.0,15.0,65,0.00,,,0.00,Wunderground PWS Mod,2013-11-19 21:45:00,
2013-11-19 16:50:00,29.0,18.7,30.08,SSW,207,5.0,15.0,65,0.00,,,0.00,Wunderground PWS Mod,2013-11-19 21:50:00,
2013-11-19 16:55:00,28.8,18.5,30.08,WSW,250,5.0,15.0,65,0.00,,,0.00,Wunderground PWS Mod,2013-11-19 21:55:00,
2013-11-19 17:00:00,28.8,18.5,30.09,SSW,199,5.0,15.0,65,0.00,,,0.00,Wunderground PWS Mod,2013-11-19 22:00:00,
2013-11-19 17:05:00,28.8,18.9,30.09,North,349,3.0,15.0,66,0.00,,,0.00,Wunderground PWS Mod,2013-11-19 22:05:00,
2013-11-19 17:10:00,28.8,18.9,30.09,West,265,5.0,15.0,66,0.00,,,0.00,Wunderground PWS Mod,2013-11-19 22:10:00,
2013-11-19 17:15:00,28.8,18.9,30.11,NNW,336,7.0,15.0,66,0.00,,,0.00,Wunderground PWS Mod,2013-11-19 22:15:00,
2013-11-19 17:20:00,28.7,19.1,30.11,WNW,296,6.0,15.0,67,0.00,,,0.00,Wunderground PWS Mod,2013-11-19 22:20:00,
2013-11-19 17:30:00,28.7,19.8,30.11,WSW,254,3.0,15.0,69,0.00,,,0.00,Wunderground PWS Mod,2013-11-19 22:30:00,
2013-11-19 17:35:00,28.7,19.5,30.11,NW,304,1.0,17.0,68,0.00,,,0.00,Wunderground PWS Mod,2013-11-19 22:35:00,
2013-11-19 17:38:00,28.7,19.5,30.11,West,278,5.0,15.0,68,0.00,,,0.00,Wunderground PWS Mod,2013-11-19 22:38:00,
2013-11-19 17:40:00,28.5,19.6,30.11,SE,132,2.0,17.0,69,0.00,,,0.00,Wunderground PWS Mod,2013-11-19 22:40:00,
2013-11-19 17:45:00,28.5,18.9,30.12,West,261,3.0,17.0,67,0.00,,,0.00,Wunderground PWS Mod,2013-11-19 22:45:00,
2013-11-19 17:55:00,28.5,18.6,30.12,WSW,254,3.0,17.0,66,0.00,,,0.00,Wunderground PWS Mod,2013-11-19 22:55:00,
2013-11-19 18:00:00,28.5,18.2,30.12,West,265,5.0,17.0,65,0.00,,,0.00,Wunderground PWS Mod,2013-11-19 23:00:00,
2013-11-19 18:03:00,28.5,18.9,30.12,WSW,246,2.0,17.0,67,0.00,,,0.00,Wunderground PWS Mod,2013-11-19 23:03:00,
2013-11-19 18:05:00,28.7,18.1,30.12,WSW,253,7.0,12.0,64,0.00,,,0.00,Wunderground PWS Mod,2013-11-19 23:05:00,
2013-11-19 18:10:00,28.7,18.1,30.12,WSW,254,6.0,12.0,64,0.00,,,0.00,Wunderground PWS Mod,2013-11-19 23:10:00,
2013-11-19 18:15:00,28.7,18.1,30.13,WSW,241,4.0,12.0,64,0.00,,,0.00,Wunderground PWS Mod,2013-11-19 23:15:00,
2013-11-19 18:20:00,28.7,18.1,30.13,SW,231,5.0,12.0,64,0.00,,,0.00,Wunderground PWS Mod,2013-11-19 23:20:00,
2013-11-19 18:25:00,28.7,17.3,30.13,NW,314,6.0,12.0,62,0.00,,,0.00,Wunderground PWS Mod,2013-11-19 23:25:00,
2013-11-19 18:30:00,28.7,17.7,30.14,South,174,7.0,12.0,63,0.00,,,0.00,Wunderground PWS Mod,2013-11-19 23:30:00,
2013-11-19 18:35:00,28.7,17.7,30.14,West,276,7.0,21.0,63,0.00,,,0.00,Wunderground PWS Mod,2013-11-19 23:35:00,
2013-11-19 18:40:00,28.7,17.7,30.14,West,277,5.0,21.0,63,0.00,,,0.00,Wunderground PWS Mod,2013-11-19 23:40:00,
2013-11-19 18:45:00,28.7,17.7,30.15,SW,221,5.0,21.0,63,0.00,,,0.00,Wunderground PWS Mod,2013-11-19 23:45:00,
2013-11-19 18:50:00,28.7,17.7,30.15,SW,217,7.0,21.0,63,0.00,,,0.00,Wunderground PWS Mod,2013-11-19 23:50:00,
2013-11-19 19:00:00,28.5,18.2,30.15,North,11,5.0,21.0,65,0.00,,,0.00,Wunderground PWS Mod,2013-11-20 00:00:00,
2013-11-19 19:05:00,28.4,19.2,30.15,SW,217,5.0,16.0,68,0.00,,,0.00,Wunderground PWS Mod,2013-11-20 00:05:00,
2013-11-19 19:08:00,28.7,18.1,30.15,NE,45,6.0,21.0,64,0.00,,,0.00,Wunderground PWS Mod,2013-11-20 00:08:00,
2013-11-19 19:10:00,28.1,19.2,30.15,SW,218,5.0,16.0,69,0.00,,,0.00,Wunderground PWS Mod,2013-11-20 00:10:00,
2013-11-19 19:15:00,27.8,19.6,30.16,WSW,246,6.0,16.0,71,0.00,,,0.00,Wunderground PWS Mod,2013-11-20 00:15:00,
2013-11-19 19:20:00,27.6,19.8,30.16,West,267,6.0,16.0,72,0.00,,,0.00,Wunderground PWS Mod,2013-11-20 00:20:00,
2013-11-19 19:25:00,27.6,20.1,30.16,SW,228,5.0,16.0,73,0.00,,,0.00,Wunderground PWS Mod,2013-11-20 00:25:00,
2013-11-19 19:30:00,27.6,20.1,30.17,WSW,240,4.0,16.0,73,0.00,,,0.00,Wunderground PWS Mod,2013-11-20 00:30:00,
2013-11-19 19:40:00,27.6,19.8,30.17,SW,220,7.0,18.0,72,0.00,,,0.00,Wunderground PWS Mod,2013-11-20 00:40:00,
2013-11-19 19:45:00,27.6,19.1,30.18,WSW,248,6.0,20.0,70,0.00,,,0.00,Wunderground PWS Mod,2013-11-20 00:45:00,
2013-11-19 19:48:00,27.6,20.1,30.17,WNW,302,6.0,18.0,73,0.00,,,0.00,Wunderground PWS Mod,2013-11-20 00:48:00,
2013-11-19 19:50:00,27.6,19.4,30.17,SW,221,5.0,18.0,71,0.00,,,0.00,Wunderground PWS Mod,2013-11-20 00:50:00,
2013-11-19 19:55:00,27.8,19.6,30.17,WSW,252,4.0,18.0,71,0.00,,,0.00,Wunderground PWS Mod,2013-11-20 00:55:00,
2013-11-19 19:58:00,27.6,19.8,30.17,SSW,211,6.0,18.0,72,0.00,,,0.00,Wunderground PWS Mod,2013-11-20 00:58:00,
2013-11-19 20:00:00,27.6,19.1,30.18,SW,228,5.0,18.0,70,0.00,,,0.00,Wunderground PWS Mod,2013-11-20 01:00:00,
2013-11-19 20:05:00,27.8,18.9,30.18,SSW,199,5.0,20.0,69,0.00,,,0.00,Wunderground PWS Mod,2013-11-20 01:05:00,
2013-11-19 20:10:00,27.8,18.9,30.18,SSW,209,5.0,20.0,69,0.00,,,0.00,Wunderground PWS Mod,2013-11-20 01:10:00,
2013-11-19 20:15:00,27.8,18.6,30.19,WSW,257,5.0,20.0,68,0.00,,,0.00,Wunderground PWS Mod,2013-11-20 01:15:00,
2013-11-19 20:20:00,27.8,18.9,30.19,West,281,4.0,20.0,69,0.00,,,0.00,Wunderground PWS Mod,2013-11-20 01:20:00,
2013-11-19 20:25:00,27.8,18.6,30.19,SSW,198,3.0,20.0,68,0.00,,,0.00,Wunderground PWS Mod,2013-11-20 01:25:00,
2013-11-19 20:30:00,27.9,18.4,30.20,WSW,252,4.0,20.0,67,0.00,,,0.00,Wunderground PWS Mod,2013-11-20 01:30:00,
2013-11-19 20:35:00,27.9,17.6,30.20,SW,220,4.0,18.0,65,0.00,,,0.00,Wunderground PWS Mod,2013-11-20 01:35:00,
2013-11-19 20:40:00,27.9,18.0,30.20,SW,216,5.0,18.0,66,0.00,,,0.00,Wunderground PWS Mod,2013-11-20 01:40:00,
2013-11-19 20:50:00,27.9,18.0,30.20,SSW,211,4.0,18.0,66,0.00,,,0.00,Wunderground PWS Mod,2013-11-20 01:50:00,
2013-11-19 20:55:00,27.9,18.0,30.20,SSW,202,3.0,18.0,66,0.00,,,0.00,Wunderground PWS Mod,2013-11-20 01:55:00,
2013-11-19 20:58:00,27.9,18.0,30.20,SW,216,5.0,18.0,66,0.00,,,0.00,Wunderground PWS Mod,2013-11-20 01:58:00,
2013-11-19 21:00:00,27.9,18.0,30.20,WSW,252,3.0,18.0,66,0.00,,,0.00,Wunderground PWS Mod,2013-11-20 02:00:00,
2013-11-19 21:05:00,27.9,18.4,30.20,WSW,242,3.0,13.0,67,0.00,,,0.00,Wunderground PWS Mod,2013-11-20 02:05:00,
2013-11-19 21:10:00,27.9,18.4,30.20,ENE,60,2.0,13.0,67,0.00,,,0.00,Wunderground PWS Mod,2013-11-20 02:10:00,
2013-11-19 21:15:00,27.9,18.0,30.20,West,259,2.0,13.0,66,0.00,,,0.00,Wunderground PWS Mod,2013-11-20 02:15:00,
2013-11-19 21:20:00,27.9,18.0,30.20,WSW,240,2.0,13.0,66,0.00,,,0.00,Wunderground PWS Mod,2013-11-20 02:20:00,
2013-11-19 21:25:00,27.9,17.6,30.20,NW,306,3.0,13.0,65,0.00,,,0.00,Wunderground PWS Mod,2013-11-20 02:25:00,
2013-11-19 21:35:00,27.8,17.6,30.21,WNW,288,4.0,12.0,65,0.00,,,0.00,Wunderground PWS Mod,2013-11-20 02:35:00,
2013-11-19 21:40:00,27.8,17.9,30.21,ESE,123,5.0,12.0,66,0.00,,,0.00,Wunderground PWS Mod,2013-11-20 02:40:00,
2013-11-19 21:43:00,27.9,17.6,30.21,West,281,3.0,13.0,65,0.00,,,0.00,Wunderground PWS Mod,2013-11-20 02:43:00,
2013-11-19 21:45:00,27.8,17.9,30.22,West,269,3.0,12.0,66,0.00,,,0.00,Wunderground PWS Mod,2013-11-20 02:45:00,
2013-11-19 21:50:00,27.8,17.9,30.22,SSW,196,2.0,12.0,66,0.00,,,0.00,Wunderground PWS Mod,2013-11-20 02:50:00,
2013-11-19 21:55:00,27.6,17.7,30.22,NW,321,3.0,12.0,66,0.00,,,0.00,Wunderground PWS Mod,2013-11-20 02:55:00,
2013-11-19 22:00:00,27.6,17.7,30.22,WNW,290,4.0,12.0,66,0.00,,,0.00,Wunderground PWS Mod,2013-11-20 03:00:00,
2013-11-19 22:05:00,27.6,17.7,30.22,NNW,337,3.0,15.0,66,0.00,,,0.00,Wunderground PWS Mod,2013-11-20 03:05:00,
2013-11-19 22:15:00,27.5,17.6,30.23,South,172,4.0,15.0,66,0.00,,,0.00,Wunderground PWS Mod,2013-11-20 03:15:00,
2013-11-19 22:20:00,27.5,17.6,30.23,WNW,286,4.0,15.0,66,0.00,,,0.00,Wunderground PWS Mod,2013-11-20 03:20:00,
2013-11-19 22:23:00,27.6,17.4,30.22,ENE,63,4.0,15.0,65,0.00,,,0.00,Wunderground PWS Mod,2013-11-20 03:23:00,
2013-11-19 22:25:00,27.3,17.8,30.23,NNW,344,5.0,15.0,67,0.00,,,0.00,Wunderground PWS Mod,2013-11-20 03:25:00,
2013-11-19 22:30:00,27.3,18.1,30.23,WSW,246,5.0,15.0,68,0.00,,,0.00,Wunderground PWS Mod,2013-11-20 03:30:00,
2013-11-19 22:35:00,27.3,18.1,30.23,NW,309,3.0,20.0,68,0.00,,,0.00,Wunderground PWS Mod,2013-11-20 03:35:00,
2013-11-19 22:40:00,27.3,18.5,30.23,WNW,301,2.0,20.0,69,0.00,,,0.00,Wunderground PWS Mod,2013-11-20 03:40:00,
2013-11-19 22:45:00,27.2,18.4,30.24,West,264,2.0,20.0,69,0.00,,,0.00,Wunderground PWS Mod,2013-11-20 03:45:00,
2013-11-19 22:55:00,26.9,19.1,30.24,NNE,21,4.0,20.0,72,0.00,,,0.00,Wunderground PWS Mod,2013-11-20 03:55:00,
2013-11-19 23:03:00,27.0,18.8,30.24,North,5,3.0,20.0,71,0.00,,,0.00,Wunderground PWS Mod,2013-11-20 04:03:00,
2013-11-19 23:10:00,26.4,19.9,30.25,North,355,3.0,13.0,76,0.00,,,0.00,Wunderground PWS Mod,2013-11-20 04:10:00,
2013-11-19 23:13:00,26.7,19.5,30.25,West,276,3.0,20.0,74,0.00,,,0.00,Wunderground PWS Mod,2013-11-20 04:13:00,
2013-11-19 23:15:00,26.1,20.5,30.26,NNE,17,2.0,13.0,79,0.00,,,0.00,Wunderground PWS Mod,2013-11-20 04:15:00,
2013-11-19 23:18:00,26.6,19.4,30.25,North,5,3.0,13.0,74,0.00,,,0.00,Wunderground PWS Mod,2013-11-20 04:18:00,
2013-11-19 23:20:00,26.0,20.7,30.26,ESE,109,2.0,13.0,80,0.00,,,0.00,Wunderground PWS Mod,2013-11-20 04:20:00,
2013-11-19 23:25:00,25.8,20.5,30.26,SW,235,2.0,13.0,80,0.00,,,0.00,Wunderground PWS Mod,2013-11-20 04:25:00,
2013-11-19 23:30:00,25.8,20.5,30.26,WSW,246,2.0,13.0,80,0.00,,,0.00,Wunderground PWS Mod,2013-11-20 04:30:00,
2013-11-19 23:35:00,25.8,20.5,30.26,WNW,298,3.0,9.0,80,0.00,,,0.00,Wunderground PWS Mod,2013-11-20 04:35:00,
2013-11-19 23:40:00,25.8,20.2,30.26,West,260,2.0,9.0,79,0.00,,,0.00,Wunderground PWS Mod,2013-11-20 04:40:00,
2013-11-19 23:45:00,26.0,19.8,30.27,SW,232,2.0,9.0,77,0.00,,,0.00,Wunderground PWS Mod,2013-11-20 04:45:00,
2013-11-19 23:50:00,26.0,19.8,30.27,WNW,299,2.0,9.0,77,0.00,,,0.00,Wunderground PWS Mod,2013-11-20 04:50:00,
2013-11-19 23:55:00,26.1,19.6,30.27,WNW,300,1.0,9.0,76,0.00,,,0.00,Wunderground PWS Mod,2013-11-20 04:55:00,